Regional Weather Roundup
Issued by NWS Northern Indiana

Home | Current Version | Previous Version | Text Only | Print | Product List | Glossary Off
Versions: 1 2 3 4 5 6 7 8 9 10 11 12 13 14 15 16 17 18 19 20 21 22 23 24 25 26 27 28 29 30 31 32 33 34 35 36 37 38 39 40 41 42 43 44 45 46 47 48 49 50

730
ASUS43 KIWX 060210
RWRIWX

KIWX WEATHER ROUNDUP
NATIONAL WEATHER SERVICE NORTHERN INDIANA
900 PM EST FRI FEB 05 2016

NOTE: "FAIR" INDICATES FEW OR NO CLOUDS BELOW 12,000 FEET WITH NO
SIGNIFICANT WEATHER AND/OR OBSTRUCTIONS TO VISIBILITY.

* THESE STATIONS ARE NOT UNDER NWS QUALITY CONTROL. THEY ALSO MAY NOT
  REPORT WEATHER SUCH AS PRECIPITATION OR FOG.

INZ001>027-060300-
NORTHERN INDIANA

CITY           SKY/WX    TMP DP  RH WIND       PRES   REMARKS
GARY*          MOCLDY    30  21  69 SW8       30.36R WCI  23
VALPARAISO     MOCLDY    28  22  78 SW6       30.34F WCI  22
MICHIGAN CITY* MOCLDY    30  25  80 CALM      30.34F
LAPORTE*       PTCLDY    30  27  87 CALM      30.33F
SOUTH BEND     CLOUDY    28  22  78 CALM      30.32F
ELKHART*         N/A     28  23  80 W3        30.33F
GOSHEN         CLOUDY    29  24  82 W6        30.32F WCI  23
MONTICELLO*    CLOUDY    27  21  79 W3        30.35F
LOGANSPORT*    CLOUDY    28  21  74 W5        30.34F WCI  23
ROCHESTER*     CLOUDY    32  27  80 CALM      30.33F
WARSAW*        CLOUDY    28  23  80 W5        30.32F WCI  23
ANGOLA*        CLOUDY    28  27  93 NW7       30.30F WCI  21
FORT WAYNE     CLOUDY    31  24  75 W7        30.34F WCI  24
HUNTINGTON*    CLOUDY    30  21  69 W6        30.34F WCI  24
PERU/GRISSOM   PTCLDY    26  24  90 SW5       30.31F WCI  21
MARION*        CLEAR     27  19  70 W6        30.35F WCI  21

$$
INZ028>050-060300-
CENTRAL INDIANA

CITY           SKY/WX    TMP DP  RH WIND       PRES   REMARKS
LAFAYETTE      MOCLDY    23  19  85 W3        30.37F
KOKOMO*        PTCLDY    27  21  80 SW6       30.34F WCI  20
MUNCIE*        CLEAR     29  22  75 W5        30.34F WCI  24
INDIANAPOLIS   CLEAR     27  20  75 CALM      30.34F

$$
MIZ043>046-050>051-056>058-064>065-071>073-077>080-060300-
SOUTHWEST LOWER MICHIGAN

CITY           SKY/WX    TMP DP  RH WIND       PRES   REMARKS
BATTLE CREEK   PTCLDY    27  20  75 W12       30.31F WCI  17
BENTON HARBOR  CLOUDY    29  23  78 CALM      30.32F
COLDWATER*     CLOUDY    29  24  82 W9        30.31S WCI  21
HILLSDALE*     CLOUDY    30  27  90 W9        30.28S WCI  21
HOLLAND        CLOUDY    29  20  69 CALM      30.32F
GRAND RAPIDS   CLOUDY    27  19  72 NW9       30.31F WCI  18
KALAMAZOO      CLOUDY    28  20  71 W6        30.31F WCI  22
STURGIS*       CLOUDY    28  24  84 CALM      30.30F
THREE RIVERS*  MOCLDY    29  24  80 NW5       30.32F WCI  24

$$
OHZ001>008-015>018-024>025-060300-
NORTHWEST OHIO

CITY           SKY/WX    TMP DP  RH WIND       PRES   REMARKS
DEFIANCE       CLOUDY    32  22  66 W7        30.33S WCI  26
FINDLAY        MOCLDY    32  25  75 W8        30.32S WCI  25
TOLEDO EXPRESS CLOUDY    32  23  69 W9        30.31F WCI  24
TOLEDO METCALF CLOUDY    33  24  69 W7        30.32S WCI  27
LIMA           CLOUDY    31  24  75 W8        30.32F WCI  23

$$
AND FOR LAKE MICHIGAN COASTAL AND OPEN LAKE BUOY OBSERVATIONS

STATION/POSITION TEMP    WIND        PRES    VSBY  WAVE
                 AIR SEA DIR/SP/G                  HT/PER
                 (F)     (DEG/KT/KT) (MB)    (MI)  (FT/S)
CALUMET HARBOR    31     210/  3/  4 1026.6F
MICHIGAN CITY     30     110/  1/  2   N/A
BURNS HARBOR      30     210/  2/  2 1028.1F
SAINT JOSEPH      30      CALM  /  1 1027.4F

$$
&&




USA.gov is the U.S. government's official web portal to all federal, state and local government web resources and services.